User: anonymous   Login
Location: Unspecified
(0.0000°N, 0.0000°E)
Time: 19:52:07
(UTC+00:00)
Language:

Picosat 9 - Orbit

View from above orbital plane
View from above orbital plane
View from above satellite
View from above satellite

Ground track
Ground track

The orbit data is extracted from the following two-line orbital elements,

1 26930U 01043B   17269.11074470 -.00000028  00000-0  21047-4 0  9996
2 26930  67.0010 148.6131 0010932 257.2898 102.6982 14.30652032835040
Epoch (UTC): 26 September 2017 02:39:28
Eccentricity: 0.0010932
inclination: 67.0010°
perigee height: 782 km
apogee height: 797 km
right ascension of ascending node: 148.6131°
argument of perigee: 257.2898°
revolutions per day: 14.30652032
mean anomaly at epoch: 102.6982°
orbit number at epoch: 83504

The dashed part of the orbit path shows where the satellite is in the earth's shadow,  

DLR